Hourly Data Report for October 19, 2020

CARBERRY CS
MANITOBA
Current Station Operator: ECCC - MSC

49°54'20.900" N
99°21'26.800" W
383.50 m
5010547
71170
WZE

Download Data

Hourly Data (October 2020)
Hourly Data Report for October 19, 2020
TIME
LST
Temp Definition
°C
Dew Point Definition
°C
Rel Hum Definition
%
Precip. Amount Definition
mm

Wind Dir Definition
10's deg

Wind Spd Definition
km/h
Visibility Definition
km
Stn Press Definition
kPa
Hmdx Definition


Wind Chill Definition


Weather Definition


00:00 -8.7 -12.0 77 0.0 25 10   97.46   -14 LegendNANA
01:00 -6.7 -10.0 77 0.0 26 13   97.48   -12 LegendNANA
02:00 -5.4 -9.3 74 0.0 26 12   97.47   -10 LegendNANA
03:00 -4.6 -9.3 70 0.0 26 17   97.46   -10 LegendNANA
04:00 -4.4 -9.4 68 0.0 27 17   97.48   -10 LegendNANA
05:00 -4.3 -9.3 68 0.0 27 14   97.51   -9 LegendNANA
06:00 -4.4 -9.2 69 0.0 26 13   97.53   -9 LegendNANA
07:00 -5.0 -9.4 71 0.0 27 12   97.54   -10 LegendNANA
08:00 -4.5 -9.0 70 0.0 27 12   97.58   -9 LegendNANA
09:00 -3.1 -8.8 65 0.0 28 17   97.59   -9 LegendNANA
10:00 -1.1 -8.4 58 0.0 29 18   97.59   -6 LegendNANA
11:00 -0.3 -8.2 55 0.0 28 18   97.59   -5 LegendNANA
12:00 -0.3 -8.6 54 0.0 29 15   97.60   -5 LegendNANA
13:00 0.4 -8.5 51 0.0 30 5   97.57     LegendNANA
14:00 0.6 -8.8 49 0.0 2 2   97.52     LegendNANA
15:00 0.8 -9.1 47 0.0 8 3   97.52     LegendNANA
16:00 0.4 -8.2 53 0.0 22 8   97.51     LegendNANA
17:00 0.2 -9.1 50 0.0 23 3   97.50     LegendNANA
18:00 -1.1 -8.4 58 0.0 9 8   97.51   -4 LegendNANA
19:00 -1.4 -7.8 61 0.0 10 4   97.52   -3 LegendNANA
20:00 -1.8 -8.2 61 0.0 14 9   97.51   -5 LegendNANA
21:00 -2.2 -9.1 59 0.0 15 9   97.50   -6 LegendNANA
22:00 -3.4 -9.9 61 0.0 16 8   97.48   -7 LegendNANA
23:00 -5.6 -11.2 65 0.0 17 7   97.45   -9 LegendNANA

Notes on Data Quality.

Legend

  • E = Estimated
  • M = Missing
  • NA = Not Available*
  • [empty] = Indicates an unobserved value
Date modified: